Weather in Bystrukha

Russia / Tyumen Oblast     56°25′19″N   70°37′30″E
temp.,
°C
wind,
m/s
gust,
m/s
humid.,
%
clouds,
%
prec.,
mm/h
press.,
hPa
HPBL,
m
23 september, thu
thu2323:00+1n359746 0.4 1023112
02:00+2nnw239274 0.0 102487
05:000nnw359783 0.0 1025102
08:00+1n3595100 0.0 1026316
11:00+5nnw346774 0.1 10271114
14:00+6nnw3459100 0.1 10271100
17:00+5nw3564100 0.1 1028394
20:00+4nw2370100 0.0 102869
24 september, fri
fri2423:00+4wnw3571100 0.0 1029146
02:00+4w3678100 0.0 1029229
05:00+3w368232 0.0 1028132
08:00+5w41074100 0.0 1028364
11:00+9wnw6960100 0.0 1028930
14:00+11wnw795275 0.0 10271323
17:00+9w5958100 0.0 1026751
20:00+6wnw3773100 0.0 1027127
25 september, sat
sat2523:00+4wnw36815 0.0 102698
02:00+3nw348939 0.0 102658
05:00+3wnw2283100 0.0 102723
08:00+4nne367522 0.0 1026257
11:00+8nne465456 0.0 10251299
14:00+7nne5651100 0.0 10251566
17:00+7n35505 0.0 1025470
20:00+2ne34640 0.0 102654
26 september, sun
sun2623:00+1ne36742 0.0 102796
02:00−1ne36862 0.0 102793
05:00−2ne37945 0.0 1028148
08:000ne47805 0.0 1029335
11:00+4ene556358 0.0 1029944
14:00+6ene46475 0.0 10291268
17:00+6ene685724 0.0 1029890
20:00+3ene596196 0.0 1030520
27 september, mon
mon2723:00+4ene4961100 0.0 1030585
02:00+1ene378560 0.0 1029172
05:00+1ne4985100 0.0 1030254
08:00+3ne5978100 0.0 1030520
11:00+5ene6861100 0.1 10301273
14:00+6ene5759100 0.1 10301263
17:00+6ene4763100 0.1 10301067
20:00+4ne51075100 0.1 1030495